User: anonymous   Login
Location: Brachstadt
(48.6975°N, 10.6755°E)
Time: 05:59:12
(UTC+00:00)
Language:

Meteor 1-21 - Orbit

View from above orbital plane
View from above orbital plane
View from above satellite
View from above satellite

Ground track
Ground track

The orbit data is extracted from the following two-line orbital elements,

1  7714U 75023A   20338.91623215  .00000173  00000-0  94389-4 0  9999
2  7714  81.2120  39.1750 0027595 290.9323  68.8893 14.08025117663305
Epoch (UTC): 03 December 2020 21:59:22
Eccentricity: 0.0027595
inclination: 81.2120°
perigee height: 846 km
apogee height: 886 km
right ascension of ascending node: 39.1750°
argument of perigee: 290.9323°
revolutions per day: 14.08025117
mean anomaly at epoch: 68.8893°
orbit number at epoch: 66330

The dashed part of the orbit path shows where the satellite is in the earth's shadow,  

DLR